Regional Weather Roundup
Issued by NWS Goodland, KS

Home | Current Version | Previous Version | Text Only | Print | Product List | Glossary On
Versions: 1 2 3 4 5 6 7 8 9 10 11 12 13 14 15 16 17 18 19 20 21 22 23 24 25 26 27 28 29 30 31 32 33 34 35 36 37 38 39 40 41 42 43 44 45 46 47 48 49 50
000
ASUS43 KGLD 170408
RWRGLD

GOODLAND FORECAST AREA HOURLY WEATHER ROUNDUP
NATIONAL WEATHER SERVICE GOODLAND KS
1000 PM MDT TUE SEP 16 2014

...OFFICIAL OBSERVATIONS...

CITY           SKY/WX    TMP DP  RH WIND       PRES   REMARKS
GOODLAND KS    CLEAR     60  51  72 CALM      30.02F
HILL CITY KS   CLEAR     64  60  87 E7        29.97S
IMPERIAL NEB   CLEAR     60  55  83 SE3       29.99S
MCCOOK NEB     CLEAR     62  58  86 E6        29.99R
AKRON CO       CLEAR     61  43  51 S8        30.08S
BURLINGTON CO  CLEAR     65  47  52 NE3       30.06F
LIMON CO       PTCLDY    61  39  44 CALM      30.15S
$$

...UNOFFICIAL OBSERVATIONS...

CITY           SKY/WX    TMP DP  RH WIND       PRES   REMARKS
COLBY KS       CLEAR     63  57  82 NE7       30.00R
GOVE KS          N/A     69  32  25 MISG        N/A
NORTON KS      CLEAR     61  54  77 E6        29.97S
SHARON SPRINGS   N/A     67  54  64 CALM        N/A
TRIBUNE KS     CLEAR     68  61  77 SW9       30.03F
WAKEENEY KS      N/A     64  58  80 MISG        N/A
TRENTON NEB      N/A     62  32  32 E9          N/A
YUMA CO          N/A     60  47  63 CALM        N/A
$$


USA.gov is the U.S. government's official web portal to all federal, state and local government web resources and services.